Regional Weather Roundup
Issued by NWS

Home | Current Version | Previous Version | Graphics & Text | Print | Product List | Glossary On
Versions: 1 2 3 4 5 6 7 8 9 10 11 12 13 14 15 16 17 18 19 20 21 22 23 24 25 26 27
000
ASUS45 KBOI 290210
RWRID

IDAHO REGIONAL WEATHER ROUNDUP
NATIONAL WEATHER SERVICE BOISE ID
800 PM MDT SAT MAY 28 2016

NOTE: "FAIR" INDICATES FEW OR NO CLOUDS BELOW 12000 FEET
WITH NO SIGNIFICANT WEATHER AND/OR OBSTRUCTIONS TO VISIBILITY

IDZ012-014-290300-
SOUTHWEST IDAHO


CITY           SKY/WX    TMP DP  RH WIND       PRES   REMARKS
BOISE          SUNNY     69  28  21 N8        29.99S
CALDWELL       SUNNY     70  33  25 NW7       29.99F
MOUNTAIN HOME  SUNNY     74  37  26 NW9       29.99S
$$

IDZ016-017-290300-
SOUTHCENTRAL IDAHO


CITY           SKY/WX    TMP DP  RH WIND       PRES   REMARKS
BURLEY         CLEAR     64  30  27 W7        30.03S
JEROME         SUNNY     64  25  22 SW7       30.04R
TWIN FALLS     SUNNY     64  28  25 VRB6      30.04S
$$

IDZ019>023-290300-
SOUTHEAST IDAHO


CITY           SKY/WX    TMP DP  RH WIND       PRES   REMARKS
IDAHO FALLS    CLEAR     62  28  27 S12       30.06S
POCATELLO      CLEAR     61  29  29 SW8       30.06S
REXBURG        CLEAR     60  29  30 S12       30.06R
$$

IDZ006-010-011-018-031-032-290300-
CENTRAL IDAHO MOUNTAINS


CITY           SKY/WX    TMP DP  RH WIND       PRES   REMARKS
MCCALL         SUNNY     58  27  30 SW6       30.05S
HAILEY         SUNNY     61  34  36 SE8       30.07R
STANLEY          N/A     58  20  22 NW7       30.09R
SALMON         SUNNY     63  36  36 NW5       29.97S
CHALLIS        MOSUNNY   65  29  25 NW6       29.99R
$$

IDZ002-004-006-007-026-290300-
NORTHERN IDAHO


CITY           SKY/WX    TMP DP  RH WIND       PRES   REMARKS
LEWISTON       SUNNY     70  38  31 N3        29.98S
LOWELL           N/A     60  44  55 CALM      29.99S
COEUR D`ALENE  MOSUNNY   61  37  41 SE6       30.00S
MULLAN PASS    SUNNY     44  29  55 VRB5      30.08S
$$




USA.gov is the U.S. government's official web portal to all federal, state and local government web resources and services.